Location: Carnières
(50.1682°N, 3.3474°E)
Time: 06:25:35
(UTC+00:00)

Cosmos 1697 Rocket - Pass Details

Date: 23 May 2024
Orbit: 833 x 842 km, 71.0° (Epoch: 19 June)

Event Time Altitude Azimuth Distance (km) Brightness Sun altitude
Rises 00:57:21 0° 320° (NW) 3,398 6.3 -17.3°
Reaches altitude 10° 01:00:27 10° 303° (WNW) 2,457 5.3 -17.2°
Maximum altitude 01:04:16 19° 260° (W) 1,894 4.3 -17.0°
Enters shadow 01:05:34 18° 243° (WSW) 1,966 4.2 -16.9°
